GW5308 Weather Reports


Display with metric or nautical units.
time (UTC)temp
F
wind
direction
speed
MPH
gust
MPH
rain 1hr
in
rain 24hr
in
rain mn
in
humidity
%
barometer
mb
20260901033521 76 0 0.0 0.0 0.00 0.02 0.02 100 1016.5
20260901033042 76 0 0.0 0.0 0.00 0.02 0.02 100 1016.5
20260901032517 76 0 0.0 0.0 0.00 0.02 0.02 100 1016.5
20260901032018 76 0 0.0 0.0 0.00 0.02 0.02 100 1016.5
20260901031546 76 0 0.0 0.0 0.00 0.02 0.02 100 1016.6
20260901031018 76 0 0.0 0.0 0.00 0.02 0.02 100 1016.6
20260901030521 76 0 0.0 0.0 0.00 0.02 0.02 100 1016.6
20260901030037 76 0 0.0 0.0 0.00 0.02 0.02 100 1016.6
20260901025522 77 0 0.0 0.0 0.00 0.02 0.02 100 1016.6
20260901025022 77 0 0.0 0.0 0.00 0.02 0.02 100 1016.6
20260901024538 77 0 0.0 0.0 0.00 0.02 0.02 100 1016.6
20260901024020 77 0 0.0 0.0 0.00 0.02 0.02 100 1016.6
20260901023520 77 0 0.0 0.0 0.00 0.02 0.02 100 1016.6
20260901023040 77 0 0.0 0.0 0.00 0.02 0.02 100 1016.6
20260901022518 77 0 0.0 0.0 0.00 0.02 0.02 100 1016.5
20260901022021 77 0 0.0 0.0 0.00 0.02 0.02 100 1016.5
20260901021541 77 0 0.0 0.0 0.00 0.02 0.02 100 1016.5
20260901021019 77 0 0.0 0.0 0.00 0.02 0.02 100 1016.5
20260901020522 77 0 0.0 0.0 0.00 0.02 0.02 100 1016.5
20260901020059 77 0 0.0 0.0 0.00 0.02 0.02 100 1016.5
20260901015520 77 0 0.0 0.0 0.00 0.02 0.02 100 1016.4
20260901015020 77 0 0.0 0.0 0.00 0.02 0.02 100 1016.4
20260901014539 77 0 0.0 0.0 0.00 0.02 0.02 100 1016.3
20260901014021 77 0 0.0 0.0 0.00 0.02 0.02 100 1016.3
20260901013520 78 0 0.0 0.0 0.00 0.02 0.02 100 1016.2
20260901013042 78 0 0.0 0.0 0.00 0.02 0.02 100 1016.2
20260901012519 78 0 0.0 0.0 0.00 0.02 0.02 100 1016.2
20260901012020 78 0 0.0 0.0 0.00 0.02 0.02 100 1016.2
20260901011541 78 0 0.0 0.0 0.00 0.02 0.02 100 1016.1
20260901011019 78 0 0.0 0.0 0.00 0.02 0.02 100 1016.0
20260901010522 78 0 0.0 0.0 0.00 0.02 0.02 100 1015.9
20260901010042 78 0 0.0 0.0 0.00 0.02 0.02 100 1015.8
20260901005520 78 0 0.0 0.0 0.00 0.02 0.02 100 1015.8
20260901005022 78 0 0.0 0.0 0.00 0.02 0.02 99 1015.7
20260901004542 79 0 0.0 0.0 0.00 0.02 0.02 99 1015.7
20260901004021 79 0 0.0 0.0 0.00 0.02 0.02 99 1015.7
20260901003519 79 0 0.0 0.0 0.00 0.02 0.02 99 1015.6
20260901003046 79 0 0.0 0.0 0.00 0.02 0.02 98 1015.5
20260901002520 79 0 0.0 0.0 0.00 0.02 0.02 98 1015.4
20260901002020 79 0 0.0 0.0 0.00 0.02 0.02 98 1015.5
20260901001550 80 0 0.0 0.0 0.00 0.02 0.02 98 1015.5
20260901001019 80 0 0.0 0.0 0.00 0.02 0.02 98 1015.5
20260901000520 80 0 0.0 0.0 0.00 0.02 0.02 98 1015.5
20260901000045 80 0 0.0 0.0 0.00 0.02 0.02 97 1015.4
20260831235519 80 0 0.0 0.0 0.00 0.02 0.02 97 1015.4
20260831235016 81 0 0.0 0.0 0.00 0.02 0.02 97 1015.4
20260831234555 81 0 0.0 0.0 0.00 0.02 0.02 97 1015.4
20260831234020 81 0 0.0 0.0 0.00 0.02 0.02 96 1015.4
20260831233523 81 0 0.0 0.0 0.00 0.02 0.02 96 1015.4
20260831233046 81 0 0.0 0.0 0.00 0.02 0.02 96 1015.4
20260831232519 81 0 0.0 1.0 0.00 0.02 0.02 96 1015.3
20260831232019 81 0 0.0 1.0 0.00 0.02 0.02 96 1015.3
20260831231538 81 0 0.0 1.0 0.00 0.02 0.02 96 1015.5
20260831231019 81 289 0.0 1.0 0.00 0.02 0.02 96 1015.4
20260831230518 81 0 0.0 2.0 0.00 0.02 0.02 97 1015.4
20260831230041 80 18 0.0 2.0 0.00 0.02 0.02 97 1015.5
20260831225518 80 0 0.0 0.0 0.00 0.02 0.02 97 1015.5
20260831225020 80 0 0.0 0.0 0.00 0.02 0.02 96 1015.5
20260831224539 80 0 0.0 0.0 0.00 0.02 0.02 96 1015.6
20260831224021 80 0 0.0 0.0 0.00 0.02 0.02 95 1015.6
20260831223520 81 0 0.0 0.0 0.00 0.02 0.02 95 1015.7
20260831223037 81 0 0.0 0.0 0.00 0.02 0.02 95 1015.7
20260831222520 81 0 0.0 0.0 0.00 0.02 0.02 94 1015.7
20260831222019 81 0 0.0 1.0 0.00 0.02 0.02 93 1015.7
20260831221540 82 0 0.0 1.0 0.00 0.02 0.02 92 1015.7
20260831221019 82 212 0.0 1.0 0.00 0.02 0.02 91 1015.7
20260831220519 83 0 0.0 1.0 0.00 0.02 0.02 93 1015.7
20260831220045 83 0 0.0 1.0 0.00 0.02 0.02 92 1015.8
20260831215519 83 0 0.0 0.0 0.00 0.02 0.02 92 1015.9
20260831215021 83 0 0.0 1.0 0.00 0.02 0.02 92 1016.0
20260831214540 83 0 0.0 2.0 0.00 0.02 0.02 92 1015.9
20260831214019 83 302 0.0 2.0 0.00 0.02 0.02 91 1016.0
20260831213520 83 0 0.0 2.0 0.00 0.02 0.02 91 1015.8
20260831213039 83 0 0.0 1.0 0.00 0.02 0.02 91 1015.9
20260831212526 83 0 0.0 1.0 0.00 0.02 0.02 91 1016.0
20260831212020 83 0 0.0 0.0 0.00 0.02 0.02 90 1015.9
20260831211543 83 0 0.0 0.0 0.00 0.02 0.02 90 1015.8
20260831211018 83 0 0.0 0.0 0.00 0.02 0.02 90 1015.8
20260831210520 83 0 0.0 1.0 0.00 0.02 0.02 89 1015.8
20260831210047 84 0 0.0 1.0 0.00 0.02 0.02 89 1015.8
20260831205521 84 0 0.0 0.0 0.00 0.02 0.02 88 1015.6
20260831205023 84 0 0.0 1.0 0.00 0.02 0.02 89 1015.7
20260831204535 84 0 0.0 1.0 0.00 0.02 0.02 88 1015.7
20260831204024 84 8 0.0 3.0 0.00 0.02 0.02 88 1015.7
20260831203521 84 0 0.0 3.0 0.00 0.02 0.02 88 1015.7
20260831203038 84 0 0.0 0.0 0.00 0.02 0.02 89 1015.8
20260831202520 84 0 0.0 0.0 0.00 0.02 0.02 88 1015.7
20260831202018 84 0 0.0 1.0 0.00 0.02 0.02 85 1015.5
20260831201546 85 0 0.0 3.0 0.00 0.02 0.02 84 1015.6
20260831201034 85 0 0.0 3.0 0.00 0.02 0.02 84 1015.8
20260831200523 85 0 1.0 4.0 0.00 0.02 0.02 83 1015.6
20260831200042 86 0 0.0 4.0 0.00 0.02 0.02 83 1015.7
20260831195524 86 4 0.0 4.0 0.00 0.02 0.02 83 1015.7
20260831195023 86 351 1.0 5.0 0.00 0.02 0.02 82 1015.7
20260831194613 87 334 2.0 5.0 0.00 0.02 0.02 81 1015.6
20260831194021 87 11 1.0 4.0 0.00 0.02 0.02 82 1015.6
20260831193522 87 0 0.0 5.0 0.00 0.02 0.02 82 1015.6
20260831193043 87 302 1.0 5.0 0.00 0.02 0.02 82 1015.5
20260831192523 88 325 1.0 5.0 0.00 0.02 0.02 78 1015.3
20260831192019 89 359 1.0 5.0 0.00 0.02 0.02 79 1015.4
20260831191539 90 13 0.0 3.0 0.00 0.02 0.02 78 1015.4
20260831191021 91 137 1.0 5.0 0.00 0.02 0.02 77 1015.4
20260831190519 91 0 1.0 5.0 0.00 0.02 0.02 77 1015.4
20260831190043 90 11 1.0 5.0 0.00 0.02 0.02 80 1015.4
20260831185521 90 297 2.0 6.0 0.00 0.02 0.02 78 1015.4
20260831185022 90 356 2.0 6.0 0.00 0.02 0.02 81 1015.4
20260831184605 89 80 1.0 3.0 0.00 0.02 0.02 83 1015.7
20260831184019 88 340 0.0 4.0 0.00 0.02 0.02 82 1015.6
20260831183520 88 344 1.0 5.0 0.00 0.02 0.02 82 1015.7
20260831183044 88 304 1.0 5.0 0.00 0.02 0.02 82 1015.8
20260831182521 89 18 2.0 5.0 0.00 0.02 0.02 82 1015.9
20260831182020 89 314 1.0 3.0 0.00 0.02 0.02 82 1015.9
20260831181540 88 0 0.0 4.0 0.00 0.02 0.02 84 1015.9
20260831181021 87 0 1.0 4.0 0.00 0.02 0.02 87 1016.0
20260831180526 87 328 0.0 3.0 0.00 0.02 0.02 86 1016.1
20260831180044 86 30 0.0 3.0 0.00 0.02 0.02 87 1016.2
20260831175519 86 0 0.0 4.0 0.00 0.07 0.02 87 1016.2
20260831175019 86 0 1.0 4.0 0.00 0.07 0.02 87 1016.4
20260831174536 86 0 0.0 1.0 0.01 0.07 0.02 92 1016.4
20260831174021 85 283 0.0 1.0 0.02 0.07 0.02 92 1016.5
20260831173524 85 0 0.0 2.0 0.02 0.07 0.02 94 1016.5
20260831173051 84 0 0.0 2.0 0.02 0.07 0.02 94 1016.6
20260831172519 84 0 0.0 2.0 0.02 0.07 0.02 93 1016.7
20260831172021 83 11 0.0 2.0 0.02 0.07 0.02 95 1016.8
20260831171538 83 0 0.0 2.0 0.02 0.07 0.02 95 1016.9
20260831171019 83 0 0.0 2.0 0.02 0.07 0.02 96 1017.0
20260831170520 83 0 0.0 2.0 0.02 0.07 0.02 96 1017.1
20260831170037 83 0 0.0 2.0 0.02 0.07 0.02 97 1017.2
20260831165522 83 0 0.0 3.0 0.02 0.07 0.02 97 1017.3
20260831165020 83 34 0.0 5.0 0.02 0.07 0.02 94 1017.4
20260831164538 84 1 0.0 5.0 0.01 0.06 0.01 93 1017.5
20260831164021 85 7 1.0 5.0 0.00 0.05 0.00 89 1017.2
20260831163523 86 0 0.0 2.0 0.00 0.05 0.00 85 1017.2
20260831163039 87 0 0.0 2.0 0.00 0.05 0.00 82 1017.2
20260831162521 90 0 0.0 2.0 0.00 0.05 0.00 78 1017.3
20260831162020 92 0 0.0 0.0 0.00 0.05 0.00 73 1017.3
20260831161542 92 0 0.0 1.0 0.00 0.05 0.00 74 1017.2
20260831161021 91 0 0.0 1.0 0.00 0.05 0.00 77 1017.3
20260831160521 91 0 0.0 1.0 0.00 0.05 0.00 74 1017.3
20260831160042 91 0 0.0 1.0 0.00 0.05 0.00 75 1017.5
20260831155521 91 0 0.0 1.0 0.00 0.05 0.00 75 1017.5
20260831155021 91 0 0.0 1.0 0.00 0.05 0.00 76 1017.6
20260831154603 90 0 0.0 0.0 0.00 0.05 0.00 77 1017.7
20260831154023 89 0 0.0 0.0 0.00 0.05 0.00 80 1017.7
20260831153526 90 0 0.0 0.0 0.00 0.05 0.00 80 1017.7
20260831153043 89 0 0.0 0.0 0.00 0.05 0.00 81 1017.6
20260831152519 89 0 0.0 0.0 0.00 0.05 0.00 80 1017.6
20260831152021 89 0 0.0 0.0 0.00 0.05 0.00 83 1017.6
20260831151537 88 0 0.0 0.0 0.00 0.05 0.00 84 1017.6
20260831151022 88 0 0.0 0.0 0.00 0.05 0.00 83 1017.5
20260831150520 88 0 0.0 0.0 0.00 0.05 0.00 84 1017.5
20260831150042 87 0 0.0 0.0 0.00 0.05 0.00 84 1017.4
20260831145517 86 0 0.0 0.0 0.00 0.05 0.00 86 1017.5
20260831145019 87 0 0.0 0.0 0.00 0.05 0.00 84 1017.5
20260831144550 87 0 0.0 0.0 0.00 0.05 0.00 86 1017.5
20260831144019 87 0 0.0 0.0 0.00 0.05 0.00 85 1017.5
20260831143519 88 0 0.0 0.0 0.00 0.05 0.00 84 1017.3
20260831143045 87 0 0.0 0.0 0.00 0.05 0.00 85 1017.2
20260831142520 87 0 0.0 0.0 0.00 0.05 0.00 86 1017.2
20260831142022 87 0 0.0 0.0 0.00 0.05 0.00 86 1017.1
20260831141537 86 0 0.0 0.0 0.00 0.05 0.00 88 1017.1
20260831141019 86 0 0.0 0.0 0.00 0.05 0.00 89 1017.1
20260831140519 85 0 0.0 0.0 0.00 0.05 0.00 92 1017.2
20260831140040 85 0 0.0 0.0 0.00 0.05 0.00 91 1017.2
20260831135521 85 0 0.0 0.0 0.00 0.05 0.00 91 1017.1
20260831135025 84 0 0.0 0.0 0.00 0.05 0.00 94 1017.2
20260831134540 83 0 0.0 0.0 0.00 0.05 0.00 95 1017.0
20260831134024 82 0 0.0 0.0 0.00 0.05 0.00 96 1017.1
20260831133521 82 0 0.0 0.0 0.00 0.05 0.00 98 1017.1
20260831133040 81 0 0.0 0.0 0.00 0.05 0.00 99 1017.1
20260831132521 81 0 0.0 0.0 0.00 0.05 0.00 100 1016.9
20260831132020 80 0 0.0 0.0 0.00 0.05 0.00 100 1016.9
20260831131542 79 0 0.0 0.0 0.00 0.05 0.00 100 1016.9
20260831131020 78 0 0.0 0.0 0.00 0.05 0.00 100 1016.9
20260831130520 78 0 0.0 0.0 0.00 0.05 0.00 100 1017.0
20260831130045 78 0 0.0 1.0 0.00 0.05 0.00 100 1016.8
20260831125521 77 0 0.0 1.0 0.00 0.05 0.00 100 1016.8
20260831125021 77 0 0.0 1.0 0.00 0.05 0.00 100 1016.7
20260831124535 76 0 0.0 0.0 0.00 0.05 0.00 100 1016.8
20260831124019 75 0 0.0 0.0 0.00 0.05 0.00 100 1016.7
20260831123520 74 0 0.0 0.0 0.00 0.05 0.00 100 1016.7
20260831123038 74 0 0.0 0.0 0.00 0.05 0.00 100 1016.6
20260831122524 74 0 0.0 0.0 0.00 0.05 0.00 100 1016.5
20260831122019 74 0 0.0 0.0 0.00 0.05 0.00 100 1016.5
20260831121537 74 0 0.0 0.0 0.00 0.05 0.00 100 1016.6
20260831121018 74 0 0.0 0.0 0.00 0.05 0.00 100 1016.5
20260831120521 73 0 0.0 0.0 0.00 0.05 0.00 100 1016.5
20260831120040 73 0 0.0 0.0 0.00 0.05 0.00 100 1016.5
20260831115525 73 0 0.0 0.0 0.00 0.05 0.00 100 1016.4
20260831115021 73 0 0.0 0.0 0.00 0.05 0.00 100 1016.3
20260831114541 73 0 0.0 0.0 0.00 0.05 0.00 100 1016.2
20260831114021 73 0 0.0 0.0 0.00 0.05 0.00 100 1016.2
20260831113521 73 0 0.0 0.0 0.00 0.05 0.00 100 1016.1
20260831113037 73 0 0.0 0.0 0.00 0.05 0.00 100 1016.1
20260831112520 73 0 0.0 0.0 0.00 0.05 0.00 100 1015.9
20260831112020 73 0 0.0 0.0 0.00 0.05 0.00 100 1015.9
20260831111559 73 0 0.0 0.0 0.00 0.05 0.00 100 1015.8
20260831111017 73 0 0.0 0.0 0.00 0.05 0.00 100 1015.9
20260831110519 72 0 0.0 0.0 0.00 0.05 0.00 100 1015.9
20260831110146 72 0 0.0 0.0 0.00 0.05 0.00 100 1015.8
20260831105519 72 0 0.0 0.0 0.00 0.05 0.00 100 1015.8
20260831105021 72 0 0.0 0.0 0.00 0.05 0.00 100 1015.8
20260831104535 72 0 0.0 0.0 0.00 0.05 0.00 100 1015.7
20260831104019 72 0 0.0 0.0 0.00 0.05 0.00 100 1015.5
20260831103519 72 0 0.0 0.0 0.00 0.05 0.00 100 1015.4
20260831103043 72 0 0.0 0.0 0.00 0.05 0.00 100 1015.3
20260831102517 72 0 0.0 0.0 0.00 0.05 0.00 100 1015.3
20260831102019 72 0 0.0 0.0 0.00 0.05 0.00 100 1015.2
20260831101541 72 0 0.0 0.0 0.00 0.05 0.00 100 1015.2
20260831101019 72 0 0.0 0.0 0.00 0.05 0.00 100 1015.2
20260831100520 72 0 0.0 0.0 0.00 0.05 0.00 100 1015.2
20260831100039 72 0 0.0 0.0 0.00 0.05 0.00 100 1015.2
20260831095519 72 0 0.0 0.0 0.00 0.05 0.00 100 1015.3
20260831095019 72 0 0.0 0.0 0.00 0.05 0.00 100 1015.2
20260831094540 72 0 0.0 0.0 0.00 0.05 0.00 100 1015.2
20260831094019 72 0 0.0 0.0 0.00 0.05 0.00 100 1015.1
20260831093524 72 0 0.0 0.0 0.00 0.05 0.00 100 1015.2
20260831093041 72 0 0.0 0.0 0.00 0.05 0.00 100 1015.2
20260831092517 72 0 0.0 0.0 0.00 0.05 0.00 100 1015.3
20260831092022 72 0 0.0 0.0 0.00 0.05 0.00 100 1015.2
20260831091538 72 0 0.0 0.0 0.00 0.05 0.00 100 1015.2
20260831091021 72 0 0.0 0.0 0.00 0.05 0.00 100 1015.2
20260831090521 72 0 0.0 0.0 0.00 0.05 0.00 100 1015.1
20260831090038 73 0 0.0 0.0 0.00 0.05 0.00 100 1015.1
20260831085521 73 0 0.0 0.0 0.00 0.05 0.00 100 1015.1
20260831085024 72 0 0.0 0.0 0.00 0.05 0.00 100 1015.0
20260831084542 73 0 0.0 0.0 0.00 0.05 0.00 100 1015.2
20260831084020 73 0 0.0 0.0 0.00 0.05 0.00 100 1015.2
20260831083520 73 0 0.0 0.0 0.00 0.05 0.00 100 1015.2
20260831083045 73 0 0.0 0.0 0.00 0.05 0.00 100 1015.2
20260831082518 73 0 0.0 0.0 0.00 0.05 0.00 100 1015.3
20260831082019 73 0 0.0 0.0 0.00 0.05 0.00 100 1015.2
20260831081546 73 0 0.0 0.0 0.00 0.05 0.00 100 1015.3
20260831081020 73 0 0.0 0.0 0.00 0.05 0.00 100 1015.4
20260831080521 73 0 0.0 0.0 0.00 0.05 0.00 100 1015.4
20260831080040 73 0 0.0 0.0 0.00 0.05 0.00 100 1015.5
20260831075519 73 0 0.0 0.0 0.00 0.05 0.00 100 1015.5
20260831075027 73 0 0.0 0.0 0.00 0.05 0.00 100 1015.5
20260831074542 73 0 0.0 0.0 0.00 0.05 0.00 100 1015.5
20260831074018 73 0 0.0 0.0 0.00 0.05 0.00 100 1015.4
20260831073516 73 0 0.0 0.0 0.00 0.05 0.00 100 1015.5
20260831073102 73 0 0.0 0.0 0.00 0.05 0.00 100 1015.5
20260831072521 73 0 0.0 0.0 0.00 0.05 0.00 100 1015.5
20260831072021 73 0 0.0 0.0 0.00 0.05 0.00 100 1015.5
20260831071538 73 0 0.0 0.0 0.00 0.05 0.00 100 1015.5
20260831071025 73 0 0.0 0.0 0.00 0.05 0.00 100 1015.6
20260831070519 73 0 0.0 0.0 0.00 0.05 0.00 100 1015.5
20260831070039 73 0 0.0 0.0 0.00 0.05 0.00 100 1015.6
20260831065522 73 0 0.0 0.0 0.00 0.05 0.00 100 1015.6
20260831065020 73 0 0.0 0.0 0.00 0.05 0.00 100 1015.8
20260831064541 73 0 0.0 0.0 0.00 0.05 0.00 100 1015.8
20260831064017 73 0 0.0 0.0 0.00 0.05 0.00 100 1015.8
20260831063517 74 0 0.0 0.0 0.00 0.05 0.00 100 1015.9
20260831063035 74 0 0.0 0.0 0.00 0.05 0.00 100 1015.9
20260831062524 74 0 0.0 0.0 0.00 0.05 0.00 100 1015.9
20260831062020 74 0 0.0 0.0 0.00 0.05 0.00 100 1016.0
20260831061538 74 0 0.0 0.0 0.00 0.05 0.00 100 1016.0
20260831061023 74 0 0.0 0.0 0.00 0.05 0.00 100 1016.0
20260831060521 74 0 0.0 0.0 0.00 0.05 0.00 100 1016.0
20260831060053 74 0 0.0 0.0 0.00 0.05 0.00 100 1015.9
20260831055522 74 0 0.0 0.0 0.00 0.05 0.00 100 1016.0
20260831055021 74 0 0.0 0.0 0.00 0.05 0.00 100 1016.1
20260831054542 74 0 0.0 0.0 0.00 0.05 0.00 100 1016.1
20260831054017 74 0 0.0 0.0 0.00 0.05 0.00 100 1016.2
20260831053518 74 0 0.0 0.0 0.00 0.05 0.00 100 1016.1
20260831053038 74 0 0.0 0.0 0.00 0.05 0.00 100 1016.1
20260831052519 74 0 0.0 0.0 0.00 0.05 0.00 100 1016.1
20260831052021 74 0 0.0 0.0 0.00 0.05 0.00 100 1016.1
20260831051542 74 0 0.0 0.0 0.00 0.05 0.00 100 1016.1
20260831051018 74 0 0.0 0.0 0.00 0.05 0.00 100 1016.2
20260831050524 74 0 0.0 0.0 0.00 0.05 0.00 100 1016.1
20260831050046 74 0 0.0 0.0 0.00 0.05 0.00 100 1016.2
20260831045517 75 0 0.0 0.0 0.00 0.05 0.00 100 1016.2
20260831045020 75 0 0.0 0.0 0.00 0.05 0.00 100 1016.2
20260831044538 75 0 0.0 0.0 0.00 0.05 0.00 100 1016.1
20260831044050 75 0 0.0 0.0 0.00 0.05 0.00 100 1016.2
20260831043519 75 0 0.0 0.0 0.00 0.05 0.00 100 1016.1
20260831043038 75 0 0.0 0.0 0.00 0.05 0.00 100 1016.2
20260831042521 75 0 0.0 0.0 0.00 0.05 0.00 100 1016.2
20260831042017 75 0 0.0 0.0 0.00 0.05 0.00 100 1016.2
20260831041546 75 0 0.0 0.0 0.00 0.05 0.00 100 1016.3
20260831041020 75 0 0.0 0.0 0.00 0.05 0.00 100 1016.2
20260831040521 75 0 0.0 0.0 0.00 0.05 0.00 100 1016.1
20260831040048 75 0 0.0 0.0 0.00 0.05 0.00 100 1016.2
20260831035523 75 0 0.0 0.0 0.00 0.05 0.05 100 1016.2
20260831035019 76 0 0.0 0.0 0.00 0.05 0.05 100 1016.3
20260831034539 76 0 0.0 0.0 0.00 0.05 0.05 100 1016.2
20260831034019 76 0 0.0 0.0 0.00 0.05 0.05 100 1016.2